Location: Middelsbur
(53.6609°N, 7.5020°E)
Time: 13:00:13
(UTC+00:00)

Cosmos 1892 - Pass Details

Date: 06 July 2020
Orbit: 505 x 523 km, 82.5° (Epoch: 07 August)

Event Time Altitude Azimuth Distance (km) Brightness Sun altitude
Exits shadow 22:26:35 11° 209° (SSW) 1,669 4.9 -12.4°
Maximum altitude 22:30:08 51° 285° (WNW) 649 3.4 -12.5°
Drops below altitude 10° 22:33:53 10° 3° (N) 1,749 6.7 -12.6°
Sets 22:36:05 0° 8° (N) 2,644 7.7 -12.7°
